Location: Deuil
(48.9767°N, 2.3272°E)
Time: 23:22:50
(UTC+00:00)

Cosmos 2228 - Pass Details

Date: 05 June 2022
Orbit: 586 x 617 km, 82.5° (Epoch: 03 July)

Event Time Altitude Azimuth Distance (km) Brightness Sun altitude
Rises 02:18:02 0° 336° (NNW) 2,875 6.9 -11.2°
Reaches altitude 10° 02:20:50 10° 318° (NW) 1,959 5.8 -10.9°
Maximum altitude 02:23:45 18° 275° (W) 1,494 4.7 -10.6°
Enters shadow 02:26:03 12° 239° (WSW) 1,782 4.8 -10.4°
